Location: Warszawa
(52.2500°N, 21.0000°E)
Time: 15:39:17
(UTC+02:00)

ITUPSAT 1 - Pass Details

Date: 23 April 2024
Orbit: 694 x 707 km, 98.5° (Epoch: 20 May)

Event Time Altitude Azimuth Distance (km) Brightness Sun altitude
Rises 00:40:22 0° 4° (N) 3,093 ? -25.1°
Reaches altitude 10° 00:43:29 10° 342° (NNW) 2,168 ? -25.1°
Maximum altitude 00:46:09 15° 308° (NW) 1,833 ? -25.1°
Drops below altitude 10° 00:48:49 10° 273° (W) 2,158 ? -25.1°
Enters shadow 00:49:16 - 269° (W) 2,267 ? -25.1°
